Showing default

GITAI-SC1, 62388

Orbit data source: Space-Track

GITAI-SC1, 62388 is a payload satellite owned by GITAI USA (US) in LEO that was launched on Sat, 21 Dec 2024 UTC via an FALCON 9 launch vehicle from the Air Force Western Test Range (AFWTR). Payload-class satellites include a variety of spacecraft equipped with specific instruments for various scientific and technological missions. These include communications satellites like Starlink; space stations such as the ISS; scientific satellites like the Hubble; Earth observation satellites from companies like Planet Labs, Umbra, and HawkEye 360; GPS; miniature CubeSats for education and research; and military/defense satellites.

Loading next visibility...
Identifier
62388, 2024-247M
Orbit
LEO
Country
Flag of USUS
Related business
Manufacturer
GITAI USA
Mission
Operational Commercial Technology
Bus & Motor
CUBESAT 16U, Unknown motor
Mass
20 kg wet, 20 kg dry
Launch date (UTC)
2024-12-21 (1 year ago)
Launch vehicle
FALCON 9
Launch site
Air Force Western Test Range (AFWTR)
Object type
Payload
Rocket body
Debris
Shape & HBR
Box, 0.2 m
Radar Cross Section
0.100 m², Medium (>0.1 m² and < 1m²)

Expand to show TLE details & history
Last TLE update: 13 hours ago

TLE from 13 hours ago
0 GITAI-SC1
1 62388U 24247M   26036.73109696  .00009990  00000-0  46924-3 0  9999
2 62388  45.0029 301.6738 0000106  77.3968 282.6924 15.19876816 62726
Epoch: 2026-02-05T17:32Z
TLE epoch observation values (Epoch: 2026-02-05T17:32:46.777Z)
Latitude
-0.00001°
Longitude
-97.40023°
Altitude
506.196 km
Speed
7.613 km/s
True Right ascension
20h 06m 41s
True Declination
0° 00' 00"
Sunlit
Object was in daylight at epoch
Visualization orbit readout
Latitude
Unknown
Longitude
Unknown
Altitude
Unknown
Speed
Unknown
Apparent Right ascension
Unknown
Apparent Declination
Unknown
Sunlit
N/A
Visualization observer readout
Local Sidereal Time
08:19:20
Azimuth
Unknown
Elevation
Unknown
Doppler factor
Unknown
Orbital elements
Apogee altitude
507.889 km
Perigee altitude
507.743 km
Semi-major axis
6,885.953 km
Eccentricity
0.00001
Inclination
45.0029°
RAAN
301.6738°
Arg. of periapsis
77.3968°
True anomaly
282.69122°
Mean anomaly
282.6924°
Eccentric anomaly
282.69181°
Mean motion
3.79837 °/min
Orbital period
94.78 mins
BSTAR
0.00046924
Loading maneuver chart data...
Computing Atmospheric mass density...
Loading historical data...
Loading historical data...
Loading historical data...
Loading historical data...
Loading historical data...
Loading historical data...
Loading historical data...

Documentation

Showing up to 5 results
|